Total_Precipitation_Accumulation
0.00 0.00 0.05 0.17 0.54 0.82 0.88 0.54 0.42 0.34 0.33 0.36 0.42 0.41 0.36 0.40 0.45 0.75 0.39 0.11 0.03 0.01 0.01 0.08 0.16 0.14 0.12 0.11 0.12 0.13 0.15 0.15 0.14 0.13 0.12 0.10 0.07 0.06 0.04 0.04 0.04 0.05 0.05 0.05 0.06 0.08 0.08 0.08 0.09
0.00 0.01 0.06 0.24 0.54 0.83 0.84 0.44 0.33 0.31 0.28 0.39 0.44 0.35 0.28 0.29 0.23 0.19 0.18 0.14 0.04 0.01 0.01 0.03 0.11 0.13 0.11 0.11 0.12 0.12 0.12 0.11 0.11 0.10 0.10 0.08 0.06 0.06 0.05 0.05 0.05 0.06 0.06 0.06 0.07 0.08 0.07 0.06 0.07
0.00 0.02 0.07 0.20 0.31 0.46 0.50 0.30 0.27 0.33 0.42 0.60 0.68 0.44 0.34 0.38 0.26 0.13 0.10 0.07 0.05 0.03 0.02 0.04 0.09 0.11 0.11 0.11 0.11 0.11 0.10 0.09 0.09 0.09 0.08 0.06 0.06 0.06 0.06 0.06 0.06 0.07 0.08 0.09 0.09 0.09 0.09 0.08 0.07
0.00 0.04 0.09 0.11 0.13 0.19 0.27 0.19 0.27 0.37 0.65 0.77 0.79 0.58 0.42 0.36 0.25 0.17 0.08 0.05 0.05 0.04 0.03 0.06 0.09 0.11 0.11 0.11 0.11 0.10 0.09 0.08 0.08 0.08 0.07 0.05 0.05 0.06 0.07 0.07 0.07 0.09 0.10 0.11 0.11 0.11 0.11 0.11 0.10
0.00 0.04 0.12 0.09 0.06 0.10 0.12 0.11 0.18 0.30 0.53 0.73 0.73 0.71 0.62 0.49 0.37 0.21 0.09 0.05 0.04 0.03 0.04 0.06 0.12 0.13 0.13 0.13 0.13 0.12 0.11 0.09 0.09 0.09 0.07 0.06 0.06 0.07 0.08 0.09 0.10 0.10 0.13 0.13 0.13 0.13 0.13 0.15 0.15
0.00 0.02 0.05 0.03 0.04 0.07 0.08 0.10 0.20 0.36 0.56 0.72 0.83 0.83 0.69 0.46 0.31 0.20 0.11 0.07 0.08 0.04 0.04 0.07 0.12 0.15 0.16 0.16 0.16 0.15 0.13 0.11 0.11 0.10 0.09 0.09 0.09 0.08 0.10 0.12 0.13 0.13 0.14 0.13 0.13 0.12 0.13 0.15 0.17
0.01 0.01 0.01 0.02 0.02 0.04 0.07 0.13 0.24 0.38 0.49 0.77 1.01 0.94 0.67 0.57 0.40 0.28 0.23 0.16 0.23 0.14 0.08 0.09 0.10 0.14 0.17 0.20 0.19 0.17 0.15 0.14 0.13 0.11 0.10 0.09 0.09 0.09 0.10 0.13 0.16 0.16 0.17 0.15 0.15 0.15 0.16 0.18 0.19
0.00 0.00 0.00 0.01 0.01 0.03 0.07 0.14 0.25 0.37 0.64 0.89 0.86 0.83 0.86 0.67 0.58 0.53 0.48 0.39 0.40 0.32 0.23 0.17 0.17 0.24 0.23 0.22 0.20 0.21 0.19 0.16 0.13 0.12 0.10 0.10 0.10 0.13 0.17 0.18 0.20 0.23 0.25 0.25 0.24 0.26 0.28 0.29 0.28
0.00 0.00 0.01 0.00 0.00 0.03 0.10 0.19 0.26 0.32 0.52 0.68 0.72 0.67 0.55 0.55 0.68 0.72 0.66 0.61 0.61 0.52 0.52 0.45 0.37 0.35 0.38 0.36 0.29 0.31 0.31 0.29 0.25 0.26 0.24 0.24 0.30 0.38 0.51 0.47 0.51 0.47 0.47 0.50 0.48 0.50 0.53 0.51 0.40
0.00 0.00 0.00 0.00 0.00 0.03 0.09 0.18 0.30 0.37 0.63 0.95 1.01 1.07 0.75 0.77 0.90 0.89 0.77 0.70 0.73 0.77 0.76 0.77 0.64 0.48 0.43 0.44 0.58 0.69 0.67 0.70 0.66 0.71 0.69 0.71 0.73 0.71 0.66 0.79 0.87 0.91 0.99 0.99 0.99 1.13 0.99 0.75 0.57
0.00 0.00 0.00 0.00 0.00 0.01 0.04 0.10 0.14 0.32 0.73 1.14 1.21 1.20 1.00 0.97 1.04 1.08 1.05 1.09 1.08 1.10 0.99 0.82 0.79 0.73 0.72 0.82 0.85 0.91 1.02 1.11 1.20 1.25 1.23 1.31 1.14 0.97 0.92 1.17 1.31 1.29 1.30 1.20 1.46 1.65 1.25 1.18 1.22
0.00 0.00 0.00 0.00 0.00 0.01 0.03 0.10 0.19 0.34 0.77 1.04 0.94 0.82 0.82 1.03 1.18 1.28 1.55 1.67 1.61 1.48 1.45 1.32 1.15 1.12 1.11 1.06 0.99 0.97 0.97 1.06 1.16 1.25 1.32 1.49 1.52 1.41 1.44 1.58 1.47 1.44 1.46 1.63 1.68 1.79 1.60 1.51 1.47
0.00 0.00 0.00 0.00 0.01 0.01 0.05 0.14 0.27 0.39 0.66 0.63 0.53 0.59 0.97 1.23 1.39 1.59 1.78 1.90 1.92 2.04 2.10 2.29 1.92 1.63 1.49 1.29 1.10 0.98 0.95 0.87 0.87 0.97 1.19 1.39 1.52 1.60 1.71 1.55 1.39 1.23 1.50 1.77 1.78 1.61 1.73 1.75 1.82
0.00 0.00 0.01 0.02 0.01 0.02 0.05 0.10 0.33 0.45 0.55 0.60 0.58 0.78 1.24 1.72 1.84 1.95 2.20 2.50 2.58 2.78 2.73 2.72 2.61 2.20 1.81 1.49 1.24 1.08 0.90 0.91 0.93 0.97 1.06 1.24 1.39 1.48 1.53 1.46 1.35 1.28 1.45 1.64 1.66 1.62 1.82 1.91 1.89
0.00 0.03 0.10 0.09 0.05 0.05 0.06 0.19 0.42 0.58 0.59 0.78 0.86 1.06 1.52 2.00 2.02 2.24 2.39 2.72 3.00 3.26 3.32 3.27 3.14 2.78 2.41 2.10 1.65 1.30 1.10 0.99 1.03 1.04 0.97 1.01 1.12 1.16 1.27 1.29 1.25 1.27 1.33 1.37 1.34 1.36 1.55 1.53 1.43
0.01 0.08 0.23 0.18 0.08 0.08 0.13 0.52 0.72 0.64 0.58 0.85 1.10 1.33 1.73 2.21 2.28 2.55 2.78 3.07 3.55 3.91 4.10 4.01 3.65 3.35 2.84 2.38 2.01 1.69 1.48 1.30 1.12 1.01 0.88 0.75 0.81 0.87 0.96 0.94 0.97 1.01 1.05 1.06 1.04 1.06 1.16 1.25 1.34
0.03 0.08 0.19 0.19 0.14 0.11 0.19 0.63 0.67 0.43 0.56 0.82 1.15 1.45 1.69 2.00 2.43 2.90 3.31 3.66 4.29 5.07 5.37 4.98 4.25 3.72 3.07 2.42 2.07 1.87 1.78 1.58 1.32 1.16 0.98 0.81 0.74 0.77 0.82 0.81 0.82 0.77 0.78 0.80 0.76 0.84 0.96 1.05 1.11
0.03 0.06 0.13 0.21 0.16 0.21 0.30 0.40 0.51 0.54 0.71 0.91 1.11 1.27 1.52 1.78 2.19 2.76 3.25 3.73 4.48 5.50 5.98 5.66 4.88 3.95 3.16 2.66 2.32 2.03 1.83 1.56 1.28 1.16 1.02 0.83 0.72 0.69 0.66 0.63 0.59 0.53 0.55 0.61 0.66 0.75 0.83 0.85 0.91
0.03 0.06 0.13 0.21 0.16 0.24 0.32 0.42 0.55 0.70 0.92 0.93 0.96 0.99 1.17 1.51 1.88 2.44 2.99 3.47 4.04 4.65 5.03 4.82 4.05 3.33 2.68 2.18 1.69 1.42 1.28 1.10 0.94 0.88 0.80 0.73 0.65 0.59 0.53 0.45 0.45 0.40 0.40 0.43 0.45 0.53 0.61 0.64 0.71
0.04 0.07 0.13 0.17 0.14 0.14 0.25 0.50 0.63 0.72 0.87 0.81 0.81 0.71 0.81 1.28 1.86 2.53 3.06 3.24 3.16 3.24 3.28 2.76 2.38 2.02 1.61 1.39 1.13 0.90 0.79 0.65 0.56 0.53 0.50 0.43 0.44 0.46 0.42 0.41 0.39 0.36 0.37 0.36 0.39 0.45 0.49 0.52 0.57
0.07 0.09 0.09 0.15 0.16 0.21 0.35 0.66 0.82 0.73 0.69 0.59 0.59 0.67 1.05 1.55 1.94 2.39 2.51 2.41 2.28 2.21 2.01 1.67 1.47 1.44 1.23 1.08 0.87 0.68 0.60 0.51 0.41 0.37 0.36 0.33 0.30 0.31 0.33 0.35 0.37 0.36 0.32 0.32 0.34 0.35 0.38 0.40 0.42
0.07 0.06 0.04 0.04 0.12 0.34 0.50 0.88 1.00 0.86 0.75 0.52 0.54 0.85 1.37 1.67 1.92 1.86 1.46 1.27 1.37 1.41 1.33 1.39 1.36 1.26 1.08 0.98 0.75 0.53 0.42 0.37 0.31 0.30 0.29 0.29 0.25 0.22 0.22 0.25 0.30 0.31 0.32 0.32 0.25 0.26 0.32 0.34 0.31
0.04 0.04 0.03 0.05 0.15 0.39 0.65 1.04 1.19 0.93 0.72 0.47 0.38 0.50 0.86 1.09 1.00 0.76 0.62 0.64 0.83 1.01 1.15 1.38 1.39 1.18 0.98 0.89 0.81 0.75 0.61 0.53 0.41 0.34 0.32 0.29 0.27 0.24 0.20 0.19 0.23 0.28 0.34 0.39 0.35 0.33 0.31 0.30 0.27
0.03 0.04 0.10 0.20 0.37 0.81 0.85 0.92 1.12 0.90 0.67 0.47 0.29 0.34 0.58 0.60 0.42 0.40 0.45 0.58 0.74 0.88 0.94 1.04 1.10 1.16 1.09 1.01 0.89 0.88 0.79 0.69 0.55 0.44 0.37 0.35 0.33 0.33 0.30 0.28 0.31 0.35 0.34 0.35 0.37 0.40 0.39 0.37 0.34
0.03 0.05 0.25 0.60 0.89 0.99 0.69 0.81 1.06 0.65 0.42 0.30 0.18 0.15 0.18 0.21 0.24 0.35 0.41 0.50 0.54 0.63 0.64 0.67 0.68 0.78 0.84 0.87 0.87 0.87 0.81 0.72 0.61 0.48 0.38 0.37 0.32 0.30 0.31 0.30 0.36 0.39 0.38 0.35 0.33 0.34 0.39 0.46 0.46
0.04 0.03 0.10 0.21 0.31 0.48 0.61 0.97 0.98 0.53 0.24 0.12 0.06 0.05 0.05 0.07 0.10 0.14 0.19 0.23 0.28 0.39 0.45 0.46 0.48 0.49 0.47 0.47 0.52 0.58 0.58 0.54 0.51 0.49 0.37 0.34 0.35 0.33 0.30 0.27 0.27 0.29 0.32 0.33 0.30 0.26 0.28 0.35 0.44
0.03 0.03 0.04 0.05 0.08 0.28 0.65 0.88 0.65 0.32 0.16 0.09 0.07 0.04 0.03 0.03 0.03 0.05 0.09 0.13 0.18 0.22 0.28 0.34 0.34 0.34 0.33 0.34 0.35 0.34 0.37 0.40 0.37 0.34 0.29 0.25 0.31 0.30 0.27 0.24 0.22 0.21 0.24 0.27 0.28 0.27 0.27 0.28 0.29
0.04 0.03 0.03 0.05 0.10 0.21 0.49 0.90 0.91 0.49 0.23 0.12 0.08 0.04 0.03 0.04 0.02 0.03 0.05 0.09 0.12 0.14 0.20 0.25 0.25 0.26 0.29 0.30 0.30 0.25 0.28 0.31 0.30 0.25 0.24 0.24 0.25 0.26 0.24 0.20 0.18 0.16 0.16 0.19 0.24 0.26 0.29 0.34 0.36
0.05 0.04 0.05 0.06 0.07 0.14 0.35 0.56 0.50 0.40 0.25 0.15 0.08 0.03 0.02 0.02 0.03 0.02 0.04 0.07 0.08 0.11 0.15 0.18 0.20 0.20 0.22 0.25 0.26 0.25 0.25 0.25 0.25 0.25 0.27 0.27 0.27 0.26 0.24 0.22 0.19 0.16 0.15 0.18 0.22 0.24 0.29 0.35 0.44
0.07 0.07 0.07 0.08 0.08 0.10 0.18 0.27 0.27 0.25 0.26 0.23 0.11 0.03 0.02 0.04 0.04 0.04 0.05 0.08 0.07 0.09 0.12 0.15 0.14 0.15 0.16 0.19 0.23 0.23 0.24 0.26 0.25 0.22 0.22 0.27 0.32 0.32 0.30 0.27 0.25 0.18 0.15 0.18 0.20 0.20 0.24 0.34 0.43